Auckland, New Zealand

11:20 AM NZDT on September 25, 2017 (GMT +1300)
Auckland International

Weather History for NZAA - December, 2012

Change the Weather History Date:

Saturday, December 29, 2012

  Actual Average Record
Temperature  
Mean Temperature 70 °F -  
Max Temperature 78 °F 69 °F 78 °F (2012)
Min Temperature 62 °F 58 °F 51 °F (1999)
Cooling Degree Days 5    
Growing Degree Days 20 (Base 50)    
Moisture  
Dew Point 64 °F    
Average Humidity 81    
Maximum Humidity 100    
Minimum Humidity 57    
Precipitation  
Precipitation 0.00 in - - ()
Sea Level Pressure  
Sea Level Pressure 30.03 in    
Wind  
Wind Speed 4 mph ()    
Max Wind Speed 16 mph    
Max Gust Speed -    
Visibility 6.2 miles    
Events      
Averages and records for this station are not official NWS values.
T = Trace of Precipitation, MM = Missing Value Source: Averaged Metar Reports

Daily Weather History Graph

Daily Weather History Graph

Search for Another Location

Airport or City:

Trip Planner

Search our weather history database for the weather conditions in past years. The results will help you decide how hot, cold, wet, or windy it might be!

Date:

Astronomy

Dec. 29, 2012 Rise Set
Actual Time 6:02 AM NZDT 8:43 PM NZDT
Civil Twilight 5:31 AM NZDT 9:13 PM NZDT
Nautical Twilight 4:53 AM NZDT 9:52 PM NZDT
Astronomical Twilight 4:10 AM NZDT 10:35 PM NZDT
Moon 9:01 PM NZDT (12/29) 6:33 AM NZDT (12/29)
Length of Visible Light 15h 42m
Length of Day
14h 40m
Full, 100% of the Moon is Illuminated
Dec 29
Full
Jan 5
Last Quarter
Jan 12
New
Jan 19
First Quarter
Jan 27
Full

Hourly Weather History & Observations

Time (NZDT) Temp. Dew Point Humidity Pressure Visibility Wind Dir Wind Speed Gust Speed Precip Events Conditions
12:00 AM 68.0 °F 66.2 °F 94% 30.09 in 6.2 mi WSW 1.2 mph - N/A   Mostly Cloudy
1:00 AM 66.2 °F 64.4 °F 94% 30.09 in 6.2 mi NW 1.2 mph - N/A   Scattered Clouds
2:00 AM 66.2 °F 64.4 °F 94% 30.09 in 6.2 mi North 2.3 mph - N/A   Scattered Clouds
3:00 AM 64.4 °F 64.4 °F 100% 30.06 in 6.2 mi NNE 1.2 mph - N/A   Scattered Clouds
4:00 AM 64.4 °F 62.6 °F 94% 30.06 in 6.2 mi ENE 2.3 mph - N/A   Scattered Clouds
5:00 AM 62.6 °F 62.6 °F 100% 30.06 in 6.2 mi South 1.2 mph - N/A   Scattered Clouds
6:00 AM 64.4 °F 62.6 °F 94% 30.06 in 6.2 mi ENE 1.2 mph - N/A   Mostly Cloudy
7:00 AM 64.4 °F 64.4 °F 100% 30.06 in 6.2 mi Calm Calm - N/A   Scattered Clouds
8:00 AM 66.2 °F 66.2 °F 100% 30.06 in 6.2 mi South 1.2 mph - N/A   Scattered Clouds
9:00 AM 69.8 °F 66.2 °F 88% 30.06 in 6.2 mi SSE 1.2 mph - N/A   Scattered Clouds
10:00 AM 71.6 °F 66.2 °F 83% 30.06 in 6.2 mi SSW 5.8 mph - N/A   Scattered Clouds
11:00 AM 71.6 °F 62.6 °F 73% 30.06 in 6.2 mi SSW 5.8 mph - N/A   Scattered Clouds
12:00 PM 75.2 °F 64.4 °F 69% 30.04 in 6.2 mi SSW 8.1 mph - N/A   Scattered Clouds
1:00 PM 77.0 °F 62.6 °F 61% 30.04 in 6.2 mi South 5.8 mph - N/A   Scattered Clouds
2:00 PM 77.0 °F 64.4 °F 65% 30.01 in 6.2 mi South 5.8 mph - N/A   Scattered Clouds
3:00 PM 77.0 °F 64.4 °F 65% 30.01 in 6.2 mi NE 10.4 mph - N/A   Scattered Clouds
4:00 PM 78.8 °F 66.2 °F 65% 30.01 in 6.2 mi NNE 11.5 mph - N/A   Scattered Clouds
5:00 PM 78.8 °F 62.6 °F 57% 29.98 in 6.2 mi NNE 13.8 mph - N/A   Scattered Clouds
6:00 PM 75.2 °F 60.8 °F 61% 29.95 in 6.2 mi NNE 13.8 mph - N/A   Partly Cloudy
7:00 PM 73.4 °F 59.0 °F 61% 29.95 in 6.2 mi North 16.1 mph - N/A   Partly Cloudy
8:00 PM 71.6 °F 62.6 °F 73% 29.98 in 6.2 mi North 15.0 mph - N/A   Partly Cloudy
9:00 PM 69.8 °F 64.4 °F 83% 29.98 in 6.2 mi North 13.8 mph - N/A   Partly Cloudy
10:00 PM 68.0 °F 64.4 °F 88% 29.98 in 6.2 mi NNE 8.1 mph - N/A   Scattered Clouds
11:00 PM 68.0 °F 64.4 °F 88% 29.98 in 6.2 mi NNE 10.4 mph - N/A   Partly Cloudy